Weather in Krugloye Pole

Russia / Republic of Tatarstan     55°37′17″N   52°10′49″E
temp.,
°C
wind,
m/s
gust,
m/s
humid.,
%
clouds,
%
prec.,
mm/h
press.,
hPa
HPBL,
m
16 may, sun
sun1600:00+19s345569 0.0 101944
03:00+17ssw335516 0.0 101926
06:00+21s3105649 0.0 1019253
09:00+26ssw610385 0.0 1019647
12:00+29ssw79325 0.0 10181162
15:00+29sw69325 0.0 10183098
18:00+25s374879 0.0 1017151
21:00+20ssw375295 0.0 101798
17 may, mon
mon1700:00+19ssw33517 0.0 101835
03:00+17ssw335822 0.0 101842
06:00+20sw395870 0.0 1019261
09:00+25sw6104643 0.0 1019573
12:00+28wsw693718 0.0 10181142
15:00+29wsw69355 0.0 10182235
18:00+26w235399 0.0 101753
21:00+21w11615 0.0 101811
18 may, tue
tue1800:00+19wnw22665 0.0 101811
03:00+17ne227719 0.0 101916
06:00+20ne3465100 0.0 1020173
09:00+24ne3351100 0.0 1019581
12:00+26ne3345100 0.0 10191057
15:00+26ne4443100 0.0 10191253
18:00+22ne485685 0.0 1019230
21:00+18e4957100 0.0 1020174
19 may, wed
wed1900:00+16e4117178 0.0 1020228
03:00+13e410798 0.0 1021222
06:00+15e59732 0.0 1021316
09:00+19e67545 0.0 1021702
12:00+23ese67435 0.0 10201160
15:00+25ese56400 0.0 10191624
18:00+22ese48540 0.0 1018247
21:00+18ese411600 0.0 1019201
20 may, thu
thu2000:00+16se410612 0.0 1019157
03:00+14se312631 0.0 1019224
06:00+17sse613595 0.0 1019452
09:00+22s710461 0.0 1019840
12:00+24s79420 0.0 10181609
15:00+24ssw894891 0.0 10181902
18:00+19wsw356838 0.0 1018421
21:00+18s256999 0.0 1018158